Date,TemperatureHighF,TemperatureAvgF,TemperatureLowF,DewpointHighF,DewpointAvgF,DewpointLowF,HumidityHigh,HumidityAvg,HumidityLow,PressureMaxIn,PressureMinIn,WindSpeedMaxMPH,WindSpeedAvgMPH,GustSpeedMaxMPH,PrecipitationSumIn
2013-1-1,45.0,41.1,38.0,34.0,30.9,27.0,71,67,61,29.98,29.86,0,0,0,0.00
2013-1-2,41.0,36.3,31.0,32.0,24.6,20.0,72,63,50,30.20,29.96,3,0,5,0.00
2013-1-3,40.0,32.4,27.0,25.0,21.8,20.0,77,65,51,30.21,30.11,2,0,3,0.00
2013-1-4,45.0,36.5,30.0,28.0,24.5,22.0,72,62,50,30.17,30.06,5,1,9,0.00
2013-1-5,46.0,38.2,31.0,30.0,25.7,21.0,70,61,51,30.34,30.10,4,0,4,0.00
2013-1-6,53.0,43.1,33.0,36.0,32.2,28.0,84,67,49,30.17,29.98,3,0,3,0.00
2013-1-7,50.0,42.9,33.0,33.0,30.1,25.0,72,61,50,30.40,30.10,4,0,5,0.00
2013-1-8,53.0,40.5,30.0,38.0,31.2,24.0,82,70,53,30.39,30.33,5,0,7,0.00
2013-1-9,50.0,41.8,33.0,42.0,35.5,28.0,86,78,61,30.34,30.19,3,0,5,0.00
2013-1-10,56.0,46.8,39.0,37.0,33.2,29.0,69,59,46,30.55,30.32,3,0,5,0.00
2013-1-11,46.0,42.2,37.0,42.0,36.1,30.0,91,79,65,30.47,30.06,2,0,2,0.04
2013-1-12,57.0,48.3,44.0,51.0,44.7,42.0,93,87,78,30.14,30.06,2,0,3,0.04
2013-1-13,51.0,47.3,44.0,49.0,45.5,42.0,96,93,87,30.10,29.94,3,0,5,0.02
2013-1-14,58.0,53.4,44.0,57.0,50.4,40.0,98,90,74,30.26,29.91,5,0,6,0.14
2013-1-15,44.0,41.1,38.0,41.0,39.0,36.0,94,93,88,30.30,30.12,3,0,5,0.75
2013-1-16,42.0,39.1,37.0,41.0,38.0,35.0,97,95,94,30.12,29.83,6,0,6,0.73
2013-1-17,44.0,41.5,39.0,41.0,38.5,35.0,97,89,81,30.08,29.93,3,0,6,0.04
2013-1-18,40.0,35.9,31.0,35.0,26.1,19.0,86,68,50,30.46,29.99,4,0,10,0.00
2013-1-19,55.0,41.9,31.0,36.0,28.4,20.0,74,60,43,30.40,29.94,5,2,9,0.00
2013-1-20,60.0,47.4,38.0,38.0,28.5,19.0,65,49,31,30.05,29.78,6,2,19,0.00
2013-1-21,44.0,37.4,33.0,31.0,23.6,18.0,66,57,48,30.07,29.77,4,0,7,0.00
2013-1-22,32.0,24.6,20.0,18.0,6.4,2.0,56,46,37,30.25,29.87,5,2,12,0.00
2013-1-23,28.0,22.7,17.0,9.0,6.6,4.0,62,50,39,30.31,30.12,6,0,8,0.00
2013-1-24,31.0,24.3,19.0,17.0,12.2,7.0,77,60,44,30.47,30.06,5,0,5,0.02
2013-1-25,25.0,21.6,18.0,18.0,11.3,7.0,80,65,50,30.47,30.04,0,0,2,0.02
2013-1-26,37.0,28.6,23.0,25.0,20.8,18.0,81,73,59,30.39,30.05,0,0,4,0.06
2013-1-27,41.0,30.1,22.0,26.0,21.1,16.0,82,70,53,30.55,30.39,2,0,3,0.02
2013-1-28,41.0,35.8,30.0,38.0,31.7,22.0,91,85,73,30.47,30.00,3,0,7,0.12
2013-1-29,67.0,49.8,37.0,57.0,45.0,35.0,95,84,67,30.10,29.96,4,1,6,0.02
2013-1-30,70.0,60.3,48.0,63.0,56.1,44.0,94,86,76,29.96,29.23,6,2,14,0.45
2013-1-31,57.0,41.8,32.0,55.0,28.1,20.0,94,59,44,29.88,29.19,5,2,14,1.20
2013-2-1,34.0,29.6,23.0,27.0,17.4,9.0,81,61,48,30.34,29.78,6,1,15,0.02
2013-2-2,32.0,26.3,21.0,25.0,15.2,9.0,83,63,47,30.35,29.99,5,0,6,0.02
2013-2-3,36.0,31.1,25.0,29.0,26.0,21.0,87,81,73,29.99,29.80,5,0,9,0.02
2013-2-4,37.0,31.5,26.0,26.0,20.0,16.0,77,63,52,30.08,29.87,6,1,8,0.02
2013-2-5,40.0,35.8,33.0,31.0,28.2,24.0,80,74,66,29.90,29.82,2,0,4,0.00
2013-2-6,49.0,38.5,32.0,35.0,29.7,24.0,86,71,53,30.32,29.90,3,0,8,0.00
2013-2-7,40.0,35.0,30.0,31.0,27.0,23.0,81,73,63,30.42,30.17,3,0,6,0.00
2013-2-8,44.0,38.5,35.0,42.0,34.4,28.0,93,85,72,30.18,29.70,4,1,12,0.22
2013-2-9,44.0,34.5,30.0,28.0,23.5,20.0,74,64,48,30.34,29.84,6,1,11,0.02
2013-2-10,47.0,34.7,25.0,31.0,22.7,19.0,80,63,42,30.45,30.22,4,1,7,0.00
2013-2-11,54.0,45.4,38.0,52.0,42.6,31.0,96,90,76,30.23,29.67,5,1,10,0.35
2013-2-12,59.0,47.7,42.0,46.0,35.6,30.0,90,64,43,29.96,29.75,4,1,9,0.06
2013-2-13,48.0,39.7,35.0,36.0,32.0,28.0,88,74,63,29.93,29.62,4,0,6,0.14
2013-2-14,52.0,40.3,34.0,37.0,32.8,30.0,90,76,48,29.98,29.72,3,0,9,0.14
2013-2-15,62.0,44.8,35.0,43.0,36.0,31.0,85,72,45,30.00,29.86,5,1,7,0.06
2013-5-5,56.0,55.3,54.0,47.0,46.8,46.0,75,74,73,30.20,30.00,0,0,1,0.00
2013-5-6,64.0,57.1,52.0,59.0,52.1,45.0,90,84,75,30.20,29.88,2,1,6,0.00
2013-5-7,63.0,60.6,59.0,62.0,58.9,56.0,96,94,90,29.92,29.76,2,1,5,1.25
2013-5-8,70.0,61.2,58.0,64.0,58.8,56.0,96,92,77,29.83,29.76,1,0,3,0.28
2013-5-9,74.0,63.3,55.0,63.0,58.0,53.0,94,84,65,29.83,29.74,2,0,6,0.03
2013-5-10,86.0,68.9,57.0,66.0,57.7,-99.9,92,73,50,29.83,29.69,2,0,7,0.33
2013-5-11,77.0,68.5,64.0,68.0,64.4,62.0,94,87,70,29.76,29.52,2,0,4,0.63
2013-5-12,69.0,61.5,53.0,63.0,47.3,-99.9,93,65,33,29.84,29.56,4,1,9,0.22
2013-5-13,65.0,53.8,44.0,40.0,35.5,29.0,80,52,28,29.95,29.82,4,1,13,0.00
2013-5-14,68.0,52.9,40.0,46.0,37.9,34.0,80,59,34,30.00,29.86,3,0,9,0.00
2013-5-15,84.0,66.8,57.0,66.0,56.2,47.0,83,69,51,29.87,29.50,2,0,5,0.00
2013-5-16,86.0,70.3,67.0,65.0,40.8,-99.9,77,65,50,29.71,29.55,3,1,13,0.00
2013-5-17,88.0,71.6,61.0,60.0,50.7,-99.9,84,59,33,29.94,29.70,2,0,4,0.00
2013-5-18,69.0,65.2,62.0,59.0,56.2,52.0,85,73,61,30.03,29.94,2,0,4,0.03
2013-5-19,77.0,66.8,62.0,70.0,62.7,58.0,91,87,77,30.01,29.89,1,0,3,0.03
2013-5-20,84.0,72.9,66.0,73.0,67.5,63.0,92,84,69,29.93,29.77,1,0,4,0.00
2013-5-21,89.0,75.9,68.0,74.0,69.1,65.0,92,80,60,29.80,29.68,2,0,5,0.00
2013-5-22,92.0,79.2,71.0,77.0,71.5,66.0,92,78,59,29.74,29.64,2,0,5,0.03
2013-5-23,83.0,74.8,68.0,72.0,68.7,64.0,91,82,67,29.72,29.57,1,0,5,0.77
2013-5-24,68.0,59.0,51.0,66.0,53.2,38.0,94,82,61,29.94,29.54,2,1,10,0.81
2013-5-25,71.0,57.0,46.0,46.0,40.5,37.0,72,56,35,29.95,29.87,3,1,9,0.03
2013-5-26,78.0,61.9,48.0,48.0,43.2,40.0,77,53,29,30.02,29.92,3,1,9,0.03
2013-5-27,73.0,62.3,50.0,54.0,47.5,43.0,81,60,41,30.08,29.99,2,0,4,0.03
2013-5-28,79.0,69.0,61.0,70.0,62.2,53.0,88,79,70,30.02,29.87,1,0,3,0.11
2013-5-29,90.0,77.6,68.0,73.0,68.0,65.0,92,74,49,29.93,29.87,2,0,4,0.06
2013-5-30,93.0,81.1,71.0,76.0,69.1,64.0,81,68,49,29.98,29.90,2,0,4,0.00
2013-5-31,95.0,81.4,70.0,70.0,67.3,65.0,85,65,42,29.95,29.82,2,0,4,0.00
2013-6-1,95.0,81.8,71.0,75.0,68.3,63.0,80,65,47,29.95,29.72,2,0,4,0.00
2013-6-2,88.0,79.2,72.0,73.0,67.5,-99.9,91,71,61,29.73,29.64,2,1,8,0.22
2013-6-3,79.0,72.5,69.0,72.0,69.2,65.0,93,89,77,29.74,29.62,1,0,3,0.56
2013-6-4,82.0,68.8,59.0,65.0,55.1,50.0,89,64,37,29.92,29.74,2,0,4,0.06
2013-6-5,84.0,70.1,58.0,62.0,57.7,53.0,88,67,41,29.98,29.85,1,0,5,0.00
2013-6-6,75.0,69.3,64.0,65.0,60.8,55.0,90,75,64,29.90,29.70,2,0,5,0.30
2013-6-7,71.0,69.4,67.0,70.0,68.2,65.0,97,96,90,29.70,29.39,2,0,5,3.41
2013-6-8,80.0,69.9,65.0,69.0,66.3,64.0,97,89,67,29.89,29.47,2,0,6,0.11
2013-6-9,84.0,73.4,66.0,73.0,67.1,63.0,92,82,66,30.00,29.88,2,0,3,0.00
2013-6-10,80.0,74.1,70.0,76.0,71.4,67.0,96,91,81,29.91,29.61,1,0,5,2.03
2013-6-11,83.0,73.6,67.0,72.0,68.4,65.0,97,85,64,29.65,29.57,3,1,9,1.42
2013-6-12,73.0,70.3,68.0,67.0,65.2,64.0,87,84,80,29.66,29.64,0,0,3,0.03
2013-6-13,71.0,69.1,68.0,68.0,64.6,62.0,90,85,83,29.40,29.34,3,1,10,0.00
2013-6-14,82.0,68.6,62.0,63.0,59.5,57.0,90,74,47,29.79,29.39,3,1,5,0.06
2013-6-15,87.0,71.2,62.0,64.0,60.6,58.0,88,71,44,29.88,29.79,3,0,6,0.03
2013-6-16,85.0,74.8,67.0,70.0,65.5,61.0,85,73,60,29.83,29.69,2,0,5,0.00
2013-6-17,90.0,79.2,71.0,75.0,69.4,64.0,84,73,57,29.78,29.70,2,0,5,0.00
2013-6-18,79.0,73.7,67.0,73.0,69.7,64.0,93,87,77,29.74,29.62,1,0,4,0.58
2013-6-19,81.0,70.9,66.0,66.0,63.7,61.0,94,79,55,29.96,29.70,1,0,5,0.02
2013-6-20,84.0,70.3,64.0,65.0,61.8,60.0,89,76,46,30.07,29.96,2,0,4,0.00
2013-6-22,89.0,82.2,77.0,70.0,67.5,66.0,72,61,53,30.06,29.95,1,0,4,0.00
2013-6-23,87.0,77.0,70.0,76.0,70.8,65.0,89,81,67,30.01,29.88,1,0,4,0.11
2013-6-24,93.0,79.3,73.0,77.0,72.7,69.0,92,81,56,29.95,29.83,3,0,4,0.14
2013-6-25,96.0,81.6,71.0,77.0,71.9,67.0,92,74,50,29.87,29.71,2,0,5,0.14
2013-6-26,92.0,79.6,71.0,76.0,71.7,67.0,89,78,58,29.79,29.64,1,0,5,0.23
2013-6-27,86.0,76.1,71.0,79.0,72.0,68.0,92,88,76,29.66,29.45,2,0,4,0.25
2013-6-28,88.0,76.4,71.0,75.0,71.8,68.0,94,86,64,29.49,29.33,2,0,5,0.47
2013-6-29,88.0,76.7,68.0,75.0,70.3,66.0,96,82,55,29.53,29.37,1,0,4,0.03
2013-6-30,85.0,78.1,75.0,78.0,74.6,72.0,94,89,79,29.69,29.52,1,0,2,0.47
2013-7-1,86.0,77.4,73.0,78.0,74.2,71.0,95,91,76,29.81,29.65,1,0,3,0.03
2013-7-2,82.0,76.9,74.0,76.0,73.6,72.0,92,89,80,29.99,29.81,1,0,3,0.08
2013-7-3,87.0,78.6,73.0,81.0,74.6,71.0,95,88,74,30.04,29.97,1,0,3,0.14
2013-7-4,91.0,81.4,75.0,79.0,75.3,73.0,94,82,63,30.07,29.98,1,0,3,0.11
2013-7-5,93.0,82.0,75.0,77.0,74.3,72.0,90,78,56,30.04,29.93,2,0,6,0.00
2013-7-6,96.0,83.2,76.0,78.0,74.4,72.0,89,76,55,30.00,29.87,1,0,6,0.00
2013-7-7,94.0,83.0,76.0,78.0,73.9,70.0,87,75,59,29.92,29.81,2,0,5,0.00
2013-7-8,90.0,78.3,74.0,75.0,71.5,70.0,90,80,55,29.92,29.84,1,0,4,0.00
2013-7-9,86.0,80.1,75.0,76.0,73.4,70.0,88,80,71,29.93,29.83,1,0,4,0.00
2013-7-10,91.0,80.6,77.0,79.0,72.6,-99.9,91,80,65,29.84,29.68,2,0,4,0.03
2013-7-11,87.0,79.0,75.0,74.0,72.7,71.0,91,82,62,29.75,29.66,1,0,3,0.03
2013-7-12,78.0,72.3,69.0,73.0,69.4,66.0,95,91,83,29.83,29.72,1,0,5,0.75
2013-7-13,85.0,76.1,69.0,78.0,72.9,68.0,96,90,79,30.09,29.83,1,0,2,0.27
2013-7-14,91.0,80.3,74.0,80.0,75.4,72.0,97,86,69,30.15,30.08,1,0,3,0.24
2013-7-15,97.0,81.7,74.0,79.0,74.7,71.0,92,81,56,30.11,29.99,1,0,3,0.00
2013-7-16,97.0,86.0,79.0,77.0,75.1,72.0,87,72,49,30.05,29.97,1,0,4,0.00
2013-7-17,95.0,83.1,77.0,78.0,74.6,72.0,87,76,56,30.02,29.91,1,0,2,0.00
2013-7-18,93.0,84.2,78.0,82.0,76.8,73.0,88,79,67,29.94,29.82,1,0,3,0.03
2013-7-19,98.0,86.5,80.0,81.0,77.8,74.0,89,77,58,29.84,29.69,1,0,4,0.03
2013-7-20,97.0,86.1,80.0,79.0,74.7,-99.9,87,71,51,29.71,29.54,2,0,6,0.00
2013-7-21,92.0,81.9,76.0,76.0,73.0,71.0,86,75,59,29.76,29.68,1,0,4,0.00
2013-7-22,92.0,81.6,76.0,79.0,75.2,73.0,90,81,67,29.76,29.59,1,0,2,0.00
2013-7-23,88.0,79.0,75.0,76.0,73.1,70.0,93,83,61,29.60,29.47,2,0,8,0.39
2013-7-24,88.0,78.9,72.0,74.0,69.6,60.0,86,74,57,29.73,29.51,1,0,3,0.00
2013-7-25,85.0,73.1,66.0,68.0,61.2,56.0,80,67,55,29.85,29.73,1,1,7,0.00
2013-7-26,86.0,74.3,67.0,69.0,64.6,62.0,86,73,49,29.91,29.83,1,0,4,0.00
2013-7-27,88.0,77.4,70.0,74.0,69.4,64.0,88,77,61,29.87,29.75,1,0,3,0.00
2013-7-28,89.0,79.0,73.0,75.0,70.8,67.0,85,77,61,29.77,29.68,1,0,5,0.00
2013-7-29,88.0,74.9,67.0,71.0,62.4,59.0,84,67,40,29.96,29.78,2,0,4,0.00
2013-7-30,87.0,73.5,63.0,65.0,61.8,58.0,85,69,46,30.04,29.94,1,0,5,0.00
2013-7-31,81.0,74.8,68.0,71.0,67.2,63.0,86,77,65,29.96,29.83,1,0,3,0.00
2013-8-1,84.0,74.6,70.0,77.0,70.9,67.0,95,88,76,29.83,29.63,1,0,4,0.47
2013-8-2,87.0,76.4,68.0,72.0,68.6,66.0,93,78,53,29.76,29.66,1,0,3,0.02
2013-8-3,77.0,72.5,70.0,71.0,67.7,66.0,90,85,76,29.79,29.71,1,0,3,0.06
2013-8-4,86.0,72.2,65.0,67.0,62.1,56.0,91,73,43,29.83,29.72,2,0,7,0.03
2013-8-5,83.0,69.8,61.0,65.0,60.0,55.0,84,72,53,29.93,29.82,1,0,3,0.00
2013-8-6,73.0,70.5,68.0,68.0,65.4,61.0,88,83,76,29.91,29.83,0,0,3,0.00
2013-8-7,84.0,75.8,71.0,76.0,71.0,67.0,91,85,75,29.91,29.80,1,0,5,0.00
2013-8-8,89.0,78.9,74.0,78.0,73.8,71.0,93,85,69,29.86,29.80,1,0,5,0.33
2013-8-9,78.0,77.0,76.0,76.0,75.0,74.0,95,95,94,29.78,29.71,0,0,1,1.13
2013-8-10,83.0,75.9,73.0,74.0,71.0,68.0,96,86,63,29.89,29.76,0,0,2,0.00
2013-8-11,84.0,76.3,71.0,75.0,70.5,68.0,91,83,72,29.93,29.82,1,0,3,0.00
2013-8-12,91.0,78.1,71.0,76.0,71.7,68.0,91,81,59,29.84,29.74,1,0,3,0.00
2013-8-13,86.0,77.1,73.0,75.0,70.5,-99.9,93,83,68,29.74,29.56,1,0,4,0.83
2013-8-14,75.0,65.6,60.0,71.0,55.9,-99.9,93,76,54,29.91,29.62,2,0,5,0.58
2013-8-15,78.0,57.3,58.0,59.0,35.8,-99.9,88,69,49,30.01,29.91,1,0,3,0.00
2013-8-16,79.0,65.1,59.0,63.0,53.6,-99.9,89,74,50,30.00,29.95,1,0,3,0.00
2013-8-17,82.0,69.8,60.0,65.0,61.0,56.0,90,75,53,30.09,30.00,2,0,4,0.00
2013-8-18,73.0,69.4,68.0,66.0,62.0,-99.9,88,80,71,30.05,29.97,1,0,4,0.06
2013-8-19,76.0,64.6,64.0,68.0,46.7,-99.9,91,83,75,29.99,29.88,1,0,4,0.06
2013-8-20,86.0,79.5,75.0,75.0,72.2,70.0,85,78,69,29.96,29.91,1,0,2,0.00
2013-8-21,91.0,78.5,71.0,76.0,72.4,68.0,92,82,61,30.01,29.88,1,0,3,0.03
2013-8-22,91.0,80.3,73.0,75.0,71.7,69.0,93,76,53,29.91,29.75,2,0,5,0.06
2013-8-23,78.0,73.1,66.0,72.0,66.8,61.0,88,81,69,29.92,29.76,1,0,3,0.03
2013-8-24,83.0,69.8,61.0,67.0,61.8,57.0,90,77,48,30.13,29.92,2,0,6,0.00
2013-8-25,84.0,68.6,61.0,65.0,57.0,-99.9,90,71,42,30.22,30.07,1,0,3,0.00
2013-8-26,89.0,73.5,64.0,67.0,62.5,57.0,83,70,45,30.10,29.82,2,0,6,0.00
2013-8-27,90.0,78.0,72.0,75.0,69.8,66.0,86,77,58,29.82,29.72,2,0,5,0.00
2013-8-28,82.0,77.6,74.0,75.0,73.0,71.0,92,86,78,29.72,29.66,1,0,5,0.14
2013-8-29,87.0,76.9,73.0,74.0,71.5,69.0,93,84,61,29.84,29.66,1,0,4,0.06
2013-8-30,89.0,77.1,70.0,73.0,70.1,67.0,90,80,58,29.86,29.71,1,0,5,0.00
2013-8-31,89.0,79.1,72.0,76.0,72.6,69.0,90,81,64,29.74,29.63,1,0,4,0.00
2013-9-1,91.0,79.3,72.0,77.0,70.6,-99.9,89,78,61,29.69,29.59,1,0,3,0.00
2013-9-2,89.0,80.2,74.0,76.0,73.2,71.0,93,80,60,29.65,29.55,2,0,7,0.08
2013-9-3,88.0,77.7,72.0,73.0,66.6,58.0,89,70,46,29.76,29.56,2,0,4,0.00
2013-9-4,87.0,71.9,61.0,61.0,58.0,54.0,84,64,34,29.90,29.78,2,0,6,0.00
2013-9-5,87.0,73.4,63.0,67.0,60.9,54.0,86,67,46,29.93,29.83,2,0,6,0.00
2013-9-6,80.0,67.3,60.0,56.0,52.0,47.0,76,59,40,30.07,29.93,2,0,5,0.00
2013-9-7,83.0,68.2,56.0,64.0,58.1,52.0,86,72,49,29.97,29.77,2,0,4,0.00
2013-9-8,89.0,74.8,67.0,69.0,62.6,-99.9,87,70,51,29.86,29.69,2,0,8,0.00
2013-9-9,82.0,72.5,64.0,68.0,60.8,52.0,83,67,59,30.02,29.88,1,0,4,0.00
2013-9-10,92.0,79.8,71.0,76.0,72.1,68.0,90,78,59,30.01,29.91,1,0,3,0.00
2013-9-11,95.0,83.3,75.0,78.0,73.7,71.0,90,74,49,29.97,29.83,1,0,6,0.00
2013-9-12,90.0,76.6,71.0,75.0,71.1,69.0,96,84,62,29.83,29.59,1,0,4,1.05
2013-9-13,74.0,69.3,65.0,70.0,63.0,54.0,97,82,52,29.75,29.54,2,0,8,0.02
2013-9-14,72.0,62.5,56.0,54.0,51.5,49.0,81,68,49,29.97,29.75,1,0,4,0.00
2013-9-15,77.0,60.9,52.0,60.0,51.3,-99.9,88,75,50,30.05,29.92,1,0,2,0.00
2013-9-16,72.0,66.0,61.0,63.0,58.6,55.0,87,78,62,30.05,29.87,1,0,2,0.03
2013-9-17,68.0,59.6,53.0,55.0,48.6,45.0,84,68,46,30.23,30.05,2,0,7,0.03
2013-9-18,58.0,50.8,48.0,49.0,46.4,44.0,88,85,80,30.16,30.02,0,0,0,0.00
2013-9-19,76.0,63.3,55.0,61.0,55.7,51.0,85,77,60,30.03,29.91,1,0,3,0.00
2013-9-20,81.0,66.9,56.0,66.0,59.1,52.0,90,77,60,29.93,29.82,2,0,3,0.00
2013-9-21,77.0,67.9,62.0,68.0,62.9,58.0,95,85,64,29.82,29.53,2,0,5,0.95
2013-9-22,68.0,62.2,59.0,64.0,56.0,-99.9,96,84,65,29.77,29.55,1,0,4,0.03
2013-9-23,67.0,58.0,53.0,52.0,49.8,46.0,89,75,54,29.90,29.76,2,0,4,0.00
2013-9-24,72.0,57.4,49.0,54.0,49.6,45.0,88,76,50,29.92,29.76,1,0,4,0.00
2013-9-25,72.0,59.7,50.0,58.0,51.6,46.0,89,76,46,29.80,29.71,1,0,2,0.00
2013-9-26,75.0,62.7,56.0,61.0,55.5,52.0,89,79,53,29.89,29.75,2,0,3,0.00
2013-9-27,73.0,63.8,58.0,62.0,57.5,54.0,91,81,63,30.05,29.90,1,0,3,0.00
2013-9-28,73.0,64.1,58.0,60.0,56.6,54.0,89,78,59,30.11,30.04,2,0,3,0.00
2013-9-29,73.0,61.6,54.0,62.0,53.6,-99.9,90,78,58,30.07,29.90,1,0,3,0.00
2013-9-30,74.0,62.9,53.0,59.0,55.0,50.0,91,76,53,29.92,29.80,2,0,4,0.00
2013-10-1,71.0,66.5,59.0,64.0,60.7,54.0,84,81,78,29.86,29.80,0,0,0,0.00
2013-10-2,84.0,71.0,60.0,67.0,62.0,57.0,90,75,52,29.89,29.81,2,0,8,0.00
2013-10-3,80.0,71.6,62.0,70.0,64.5,58.0,89,79,67,29.93,29.84,1,0,2,0.00
2013-10-4,86.0,73.9,63.0,70.0,66.1,60.0,91,78,58,29.90,29.81,1,0,5,0.00
2013-10-5,86.0,75.4,66.0,71.0,67.7,63.0,90,78,57,29.89,29.79,1,0,3,0.00
2013-10-6,86.0,75.4,67.0,74.0,68.3,63.0,90,79,57,29.85,29.73,2,0,4,0.00
2013-10-7,75.0,68.2,57.0,73.0,65.1,53.0,94,90,83,29.85,29.63,3,0,5,0.89
2013-10-8,63.0,57.0,51.0,54.0,51.5,48.0,94,82,65,30.09,29.84,2,0,5,0.09
2013-10-9,61.0,57.3,54.0,54.0,52.5,50.0,90,84,77,30.10,30.00,2,0,6,0.19
2013-10-10,59.0,57.0,55.0,58.0,55.6,53.0,96,94,91,30.00,29.80,2,1,9,1.75
2013-10-11,64.0,61.0,59.0,63.0,60.0,58.0,97,96,96,29.81,29.73,2,1,10,2.41
2013-10-12,65.0,62.8,61.0,63.0,61.5,60.0,97,95,89,29.98,29.80,2,1,6,1.20
2013-10-13,64.0,60.0,57.0,61.0,56.6,-99.9,96,92,88,30.13,29.97,2,1,7,0.56
2013-10-14,66.0,59.9,56.0,59.0,56.2,53.0,93,88,79,30.14,30.03,1,0,3,0.03
2013-10-15,65.0,57.7,51.0,57.0,53.1,49.0,96,85,56,30.05,29.90,1,0,5,0.00
2013-10-16,69.0,64.0,61.0,64.0,60.5,58.0,92,88,84,29.91,29.76,1,0,3,0.00
2013-10-17,73.0,66.7,62.0,67.0,63.3,60.0,95,89,79,29.76,29.57,2,0,4,0.03
2013-10-18,66.0,58.1,52.0,63.0,50.4,47.0,89,76,55,29.83,29.64,2,0,6,0.03
2013-10-19,64.0,56.4,49.0,59.0,51.8,46.0,92,85,72,29.82,29.60,1,0,4,0.00
2013-10-20,62.0,52.9,48.0,52.0,41.3,-99.9,83,68,47,29.90,29.65,2,0,9,0.00
2013-10-21,66.0,53.3,43.0,50.0,45.0,39.0,89,75,49,29.95,29.78,1,0,4,0.00
2013-10-22,64.0,56.1,50.0,54.0,49.8,46.0,88,80,66,29.78,29.63,1,0,4,0.00
2013-10-23,57.0,51.8,47.0,48.0,43.5,40.0,88,74,58,29.68,29.46,2,0,4,0.08
2013-10-24,52.0,46.2,40.0,41.0,35.5,31.0,84,67,47,29.91,29.68,3,1,10,0.03
2013-10-25,55.0,48.3,39.0,39.0,35.9,33.0,83,63,50,30.09,29.91,3,1,7,0.00
2013-10-26,56.0,45.8,35.0,37.0,33.6,31.0,85,65,42,30.09,29.73,3,1,7,0.00
2013-10-27,60.0,49.9,42.0,42.0,37.1,-99.9,80,64,49,29.94,29.73,2,0,11,0.00
2013-10-28,62.0,48.4,39.0,48.0,40.3,-99.9,88,77,55,30.05,29.93,1,0,3,0.00
2013-10-29,62.0,51.2,42.0,50.0,44.0,38.0,87,77,60,30.15,30.04,1,0,4,0.00
2013-10-30,65.0,55.3,50.0,59.0,51.8,46.0,93,88,81,30.11,29.93,1,0,4,0.06
2013-10-31,68.0,60.4,54.0,62.0,57.0,51.0,95,89,77,30.00,29.63,1,0,5,0.02
2013-11-1,71.0,67.0,60.0,66.0,61.8,57.0,92,84,76,29.64,29.43,3,1,8,0.17
2013-11-2,67.0,58.6,51.0,56.0,50.5,42.0,92,76,56,29.68,29.47,2,0,9,0.03
2013-11-3,57.0,48.7,43.0,43.0,36.2,-99.9,85,66,39,30.22,29.69,2,0,6,0.00
2013-11-4,47.0,41.4,35.0,33.0,28.3,24.0,78,60,41,30.39,30.23,2,0,5,0.00
2013-11-12,53.0,43.3,33.0,39.0,27.7,19.0,67,54,45,30.14,29.77,3,1,9,0.00
2013-11-13,46.0,36.5,31.0,25.0,22.7,20.0,68,58,40,30.20,30.13,3,1,7,0.00
2013-11-14,59.0,41.3,30.0,29.0,24.3,22.0,74,54,25,30.16,30.00,2,0,5,0.00
2013-11-15,59.0,44.5,33.0,41.0,32.1,25.0,78,63,40,30.06,29.97,1,0,3,0.00
2013-11-16,54.0,49.8,47.0,50.0,45.0,-99.9,93,87,79,30.09,30.02,1,0,3,0.28
2013-11-17,65.0,56.9,52.0,59.0,54.0,50.0,94,90,81,30.02,29.60,2,0,4,0.03
2013-11-18,67.0,59.3,52.0,63.0,45.4,31.0,93,64,27,29.74,29.51,5,2,10,0.16
2013-12-14,40.0,36.3,34.0,37.0,30.0,-99.9,94,81,74,30.12,29.55,2,0,2,0.70
2013-12-15,45.0,38.3,33.0,40.0,33.4,27.0,94,83,69,29.75,29.45,6,2,12,0.03
2013-12-16,37.0,34.7,33.0,29.0,27.3,24.0,81,74,66,30.00,29.74,2,0,4,0.00
2013-12-17,38.0,35.6,34.0,33.0,29.8,27.0,83,79,75,29.98,29.74,1,0,3,0.00
2013-12-18,41.0,35.1,31.0,30.0,26.7,23.0,87,72,53,30.02,29.77,4,1,12,0.00
2013-12-19,58.0,42.2,29.0,34.0,29.5,24.0,83,63,40,30.00,29.86,2,1,7,0.00
2013-12-20,59.0,53.2,46.0,51.0,37.7,31.0,75,56,43,29.93,29.81,2,1,4,0.00